Location: ???????
(52.3000°N, 54.4667°E)
Time: 11:05:35
(UTC+00:00)

Meteor 1-21 Rocket - Pass Details

Date: 24 January 2020
Orbit: 834 x 907 km, 81.2° (Epoch: 18 February)

Event Time Altitude Azimuth Distance (km) Brightness Sun altitude
Rises 14:19:47 0° 184° (S) 3,396 7.6 -13.0°
Reaches altitude 10° 14:22:10 10° 182° (S) 2,474 6.8 -13.3°
Maximum altitude 14:27:45 73° 99° (E) 904 4.2 -14.2°
Drops below altitude 10° 14:33:30 10° 16° (NNE) 2,540 6.4 -15.0°
Sets 14:35:59 0° 15° (NNE) 3,494 7.1 -15.4°
